Time,TemperatureF,DewpointF,PressureIn,WindDirection,WindDirectionDegrees,WindSpeedMPH,WindSpeedGustMPH,Humidity,HourlyPrecipIn,Conditions,Clouds,dailyrainin,SoftwareType,DateUTC
2013-03-02 00:02:00,23.0,16.0,29.92,ENE,62,5.0,15.0,73,0.00,,,0.00,,2013-03-02 05:02:00,
2013-03-02 00:12:00,23.0,16.0,29.92,ENE,62,5.0,15.0,73,0.00,,,0.00,,2013-03-02 05:12:00,
2013-03-02 00:22:00,22.0,14.0,29.91,NE,49,5.0,11.0,72,0.00,,,0.00,,2013-03-02 05:22:00,
2013-03-02 00:32:00,22.0,15.0,29.91,ENE,66,4.0,11.0,73,0.00,,,0.00,,2013-03-02 05:32:00,
2013-03-02 00:42:00,22.0,15.0,29.91,ENE,66,4.0,11.0,73,0.00,,,0.00,,2013-03-02 05:42:00,
2013-03-02 00:52:00,21.0,14.0,29.91,NE,50,5.0,12.0,73,0.00,,,0.00,,2013-03-02 05:52:00,
2013-03-02 01:01:00,21.0,14.0,29.91,NE,51,3.0,8.0,74,0.00,,,0.00,,2013-03-02 06:01:00,
2013-03-02 01:11:00,21.0,14.0,29.91,NE,51,3.0,8.0,74,0.00,,,0.00,,2013-03-02 06:11:00,
2013-03-02 01:21:00,20.0,13.0,29.92,ENE,63,3.0,10.0,73,0.00,,,0.00,,2013-03-02 06:21:00,
2013-03-02 01:32:00,20.0,13.0,29.92,NNE,22,1.0,7.0,74,0.00,,,0.00,,2013-03-02 06:32:00,
2013-03-02 01:42:00,20.0,13.0,29.92,NNE,22,1.0,7.0,74,0.00,,,0.00,,2013-03-02 06:42:00,
2013-03-02 01:52:00,19.0,12.0,29.92,NE,36,1.0,7.0,74,0.00,,,0.00,,2013-03-02 06:52:00,
2013-03-02 02:01:00,19.0,12.0,29.92,ENE,74,3.0,10.0,75,0.00,,,0.00,,2013-03-02 07:01:00,
2013-03-02 02:11:00,19.0,12.0,29.92,NE,49,2.0,7.0,75,0.00,,,0.00,,2013-03-02 07:11:00,
2013-03-02 02:21:00,19.0,12.0,29.92,NE,49,2.0,7.0,75,0.00,,,0.00,,2013-03-02 07:21:00,
2013-03-02 02:32:00,18.0,11.0,29.91,ENE,72,2.0,8.0,75,0.00,,,0.00,,2013-03-02 07:32:00,
2013-03-02 02:42:00,18.0,11.0,29.91,ENE,72,2.0,8.0,75,0.00,,,0.00,,2013-03-02 07:42:00,
2013-03-02 02:52:00,18.0,12.0,29.92,NE,53,3.0,9.0,76,0.00,,,0.00,,2013-03-02 07:52:00,
2013-03-02 03:01:00,18.0,12.0,29.91,NE,38,1.0,4.0,77,0.00,,,0.00,,2013-03-02 08:01:00,
2013-03-02 03:11:00,18.0,12.0,29.91,NE,38,1.0,4.0,77,0.00,,,0.00,,2013-03-02 08:11:00,
2013-03-02 03:22:00,18.0,12.0,29.91,NE,47,2.0,8.0,78,0.00,,,0.00,,2013-03-02 08:22:00,
2013-03-02 03:32:00,18.0,13.0,29.91,NE,49,1.0,4.0,79,0.00,,,0.00,,2013-03-02 08:32:00,
2013-03-02 03:42:00,18.0,13.0,29.91,NE,49,1.0,4.0,79,0.00,,,0.00,,2013-03-02 08:42:00,
2013-03-02 03:52:00,17.0,12.0,29.91,NNE,30,1.0,5.0,79,0.00,,,0.00,,2013-03-02 08:52:00,
2013-03-02 04:02:00,17.0,12.0,29.91,NE,50,2.0,8.0,80,0.00,,,0.00,,2013-03-02 09:02:00,
2013-03-02 04:11:00,17.0,12.0,29.91,NE,44,2.0,6.0,79,0.00,,,0.00,,2013-03-02 09:11:00,
2013-03-02 04:22:00,17.0,12.0,29.91,NE,44,2.0,6.0,79,0.00,,,0.00,,2013-03-02 09:22:00,
2013-03-02 04:32:00,17.0,12.0,29.91,NE,45,2.0,6.0,80,0.00,,,0.00,,2013-03-02 09:32:00,
2013-03-02 04:42:00,17.0,12.0,29.91,NE,45,2.0,6.0,80,0.00,,,0.00,,2013-03-02 09:42:00,
2013-03-02 04:52:00,17.0,12.0,29.91,NNE,24,1.0,4.0,81,0.00,,,0.00,,2013-03-02 09:52:00,
2013-03-02 05:01:00,16.0,11.0,29.90,NE,41,1.0,4.0,81,0.00,,,0.00,,2013-03-02 10:01:00,
2013-03-02 05:16:00,16.0,11.0,29.90,NE,41,1.0,4.0,81,0.00,,,0.00,,2013-03-02 10:16:00,
2013-03-02 05:22:00,16.0,11.0,29.90,NNE,32,1.0,4.0,82,0.00,,,0.00,,2013-03-02 10:22:00,
2013-03-02 05:32:00,18.0,13.0,29.90,NE,51,2.0,9.0,82,0.00,,,0.00,,2013-03-02 10:32:00,
2013-03-02 05:43:00,18.0,13.0,29.90,NE,51,2.0,9.0,82,0.00,,,0.00,,2013-03-02 10:43:00,
2013-03-02 05:52:00,18.0,13.0,29.91,NE,47,2.0,5.0,81,0.00,,,0.00,,2013-03-02 10:52:00,
2013-03-02 06:01:00,18.0,13.0,29.90,ENE,57,1.0,5.0,82,0.00,,,0.00,,2013-03-02 11:01:00,
2013-03-02 06:11:00,18.0,13.0,29.90,ENE,57,1.0,5.0,82,0.00,,,0.00,,2013-03-02 11:11:00,
2013-03-02 06:21:00,18.0,13.0,29.91,NNE,26,0.0,6.0,82,0.00,,,0.00,,2013-03-02 11:21:00,
2013-03-02 06:32:00,18.0,13.0,29.91,NE,38,1.0,4.0,82,0.00,,,0.00,,2013-03-02 11:32:00,
2013-03-02 06:42:00,18.0,13.0,29.91,NE,38,1.0,4.0,82,0.00,,,0.00,,2013-03-02 11:42:00,
2013-03-02 06:52:00,18.0,13.0,29.91,NE,45,1.0,6.0,82,0.00,,,0.00,,2013-03-02 11:52:00,
2013-03-02 07:02:00,18.0,13.0,29.91,ENE,61,1.0,4.0,82,0.00,,,0.00,,2013-03-02 12:02:00,
2013-03-02 07:11:00,18.0,13.0,29.91,ENE,61,1.0,4.0,82,0.00,,,0.00,,2013-03-02 12:11:00,
2013-03-02 07:22:00,18.0,14.0,29.91,NE,45,2.0,7.0,83,0.00,,,0.00,,2013-03-02 12:22:00,
2013-03-02 07:33:00,18.0,14.0,29.91,NE,39,1.0,7.0,84,0.00,,,0.00,,2013-03-02 12:33:00,
2013-03-02 07:43:00,18.0,14.0,29.91,NE,39,1.0,7.0,84,0.00,,,0.00,,2013-03-02 12:43:00,
2013-03-02 07:53:00,18.0,14.0,29.91,NNE,21,0.0,5.0,84,0.00,,,0.00,,2013-03-02 12:53:00,
2013-03-02 08:01:00,18.0,14.0,29.92,NNE,32,1.0,5.0,85,0.00,,,0.00,,2013-03-02 13:01:00,
2013-03-02 08:11:00,18.0,14.0,29.92,NNE,32,1.0,5.0,85,0.00,,,0.00,,2013-03-02 13:11:00,
2013-03-02 08:22:00,18.0,14.0,29.92,NE,44,2.0,10.0,85,0.00,,,0.00,,2013-03-02 13:22:00,
2013-03-02 08:32:00,19.0,15.0,29.92,ENE,68,3.0,9.0,85,0.00,,,0.00,,2013-03-02 13:32:00,
2013-03-02 08:42:00,19.0,15.0,29.92,ENE,68,3.0,9.0,85,0.00,,,0.00,,2013-03-02 13:42:00,
2013-03-02 08:52:00,19.0,16.0,29.92,NE,47,2.0,9.0,86,0.00,,,0.00,,2013-03-02 13:52:00,
2013-03-02 09:01:00,19.0,16.0,29.91,NNE,30,3.0,8.0,86,0.00,,,0.00,,2013-03-02 14:01:00,
2013-03-02 09:11:00,19.0,16.0,29.91,NNE,30,3.0,8.0,86,0.00,,,0.00,,2013-03-02 14:11:00,
2013-03-02 09:22:00,19.0,16.0,29.92,NE,52,3.0,9.0,86,0.00,,,0.00,,2013-03-02 14:22:00,
2013-03-02 09:32:00,20.0,16.0,29.92,NE,53,3.0,8.0,86,0.00,,,0.00,,2013-03-02 14:32:00,
2013-03-02 09:42:00,20.0,16.0,29.92,NE,53,3.0,8.0,86,0.00,,,0.00,,2013-03-02 14:42:00,
2013-03-02 09:52:00,20.0,16.0,29.92,NE,53,3.0,10.0,85,0.00,,,0.00,,2013-03-02 14:52:00,
2013-03-02 10:02:00,20.0,16.0,29.92,NE,48,2.0,11.0,86,0.00,,,0.00,,2013-03-02 15:02:00,
2013-03-02 10:11:00,20.0,16.0,29.92,NE,48,2.0,11.0,86,0.00,,,0.00,,2013-03-02 15:11:00,
2013-03-02 10:22:00,20.0,16.0,29.92,ENE,67,3.0,8.0,86,0.00,,,0.00,,2013-03-02 15:22:00,
2013-03-02 10:32:00,21.0,17.0,29.91,NE,43,2.0,7.0,86,0.00,,,0.00,,2013-03-02 15:32:00,
2013-03-02 10:42:00,21.0,17.0,29.91,NE,43,2.0,7.0,86,0.00,,,0.00,,2013-03-02 15:42:00,
2013-03-02 10:52:00,22.0,18.0,29.92,NE,54,3.0,8.0,85,0.00,,,0.00,,2013-03-02 15:52:00,
2013-03-02 11:02:00,22.0,18.0,29.92,NE,48,3.0,9.0,83,0.00,,,0.00,,2013-03-02 16:02:00,
2013-03-02 11:11:00,22.0,18.0,29.92,NE,48,3.0,9.0,83,0.00,,,0.00,,2013-03-02 16:11:00,
2013-03-02 11:21:00,22.0,17.0,29.92,ENE,65,3.0,8.0,82,0.00,,,0.00,,2013-03-02 16:21:00,
2013-03-02 11:32:00,24.0,19.0,29.92,NE,40,2.0,8.0,82,0.00,,,0.00,,2013-03-02 16:32:00,
2013-03-02 11:42:00,24.0,19.0,29.92,NE,40,2.0,8.0,82,0.00,,,0.00,,2013-03-02 16:42:00,
2013-03-02 11:52:00,23.0,18.0,29.92,NE,50,4.0,10.0,82,0.00,,,0.00,,2013-03-02 16:52:00,
2013-03-02 12:01:00,23.0,19.0,29.92,NE,53,3.0,8.0,83,0.00,,,0.00,,2013-03-02 17:01:00,
2013-03-02 12:11:00,23.0,19.0,29.92,NE,53,3.0,8.0,83,0.00,,,0.00,,2013-03-02 17:11:00,
2013-03-02 12:21:00,24.0,18.0,29.91,NE,48,3.0,11.0,78,0.00,,,0.00,,2013-03-02 17:21:00,
2013-03-02 12:32:00,24.0,18.0,29.91,NE,47,3.0,11.0,79,0.00,,,0.00,,2013-03-02 17:32:00,
2013-03-02 12:42:00,24.0,18.0,29.91,NE,47,3.0,11.0,79,0.00,,,0.00,,2013-03-02 17:42:00,
2013-03-02 12:52:00,25.0,19.0,29.91,NNE,22,2.0,9.0,76,0.00,,,0.00,,2013-03-02 17:52:00,
2013-03-02 13:02:00,25.0,19.0,29.90,North,10,2.0,11.0,76,0.00,,,0.00,,2013-03-02 18:02:00,
2013-03-02 13:11:00,25.0,19.0,29.90,North,10,2.0,11.0,76,0.00,,,0.00,,2013-03-02 18:11:00,
2013-03-02 13:22:00,25.0,19.0,29.90,NE,44,3.0,11.0,78,0.00,,,0.00,,2013-03-02 18:22:00,
2013-03-02 13:32:00,26.0,20.0,29.89,NNW,335,2.0,9.0,77,0.00,,,0.00,,2013-03-02 18:32:00,
2013-03-02 13:42:00,26.0,20.0,29.89,NNW,335,2.0,9.0,77,0.00,,,0.00,,2013-03-02 18:42:00,
2013-03-02 13:52:00,26.0,20.0,29.89,NNE,20,2.0,8.0,77,0.00,,,0.00,,2013-03-02 18:52:00,
2013-03-02 14:01:00,26.0,20.0,29.88,NE,35,2.0,10.0,77,0.00,,,0.00,,2013-03-02 19:01:00,
2013-03-02 14:12:00,26.0,20.0,29.88,NE,35,2.0,10.0,77,0.00,,,0.00,,2013-03-02 19:12:00,
2013-03-02 14:22:00,26.0,20.0,29.88,NNE,30,2.0,9.0,77,0.00,,,0.00,,2013-03-02 19:22:00,
2013-03-02 14:32:00,26.0,20.0,29.88,NNW,340,3.0,9.0,78,0.00,,,0.00,,2013-03-02 19:32:00,
2013-03-02 14:42:00,26.0,20.0,29.88,NNW,340,3.0,9.0,78,0.00,,,0.00,,2013-03-02 19:42:00,
2013-03-02 14:52:00,28.0,21.0,29.87,North,8,2.0,8.0,75,0.00,,,0.00,,2013-03-02 19:52:00,
2013-03-02 15:02:00,27.0,20.0,29.87,NNE,14,3.0,9.0,75,0.00,,,0.00,,2013-03-02 20:02:00,
2013-03-02 15:11:00,27.0,20.0,29.87,NNE,14,3.0,9.0,75,0.00,,,0.00,,2013-03-02 20:11:00,
2013-03-02 15:22:00,29.0,21.0,29.87,NNE,16,2.0,11.0,72,0.00,,,0.00,,2013-03-02 20:22:00,
2013-03-02 15:32:00,28.0,20.0,29.86,NNE,28,2.0,8.0,72,0.00,,,0.00,,2013-03-02 20:32:00,
2013-03-02 15:42:00,28.0,20.0,29.86,NNE,28,2.0,8.0,72,0.00,,,0.00,,2013-03-02 20:42:00,
2013-03-02 15:53:00,32.0,23.0,29.87,NNE,14,2.0,8.0,68,0.00,,,0.00,,2013-03-02 20:53:00,
2013-03-02 16:02:00,29.0,19.0,29.86,NNE,27,2.0,8.0,65,0.00,,,0.00,,2013-03-02 21:02:00,
2013-03-02 16:11:00,29.0,19.0,29.86,NNE,27,2.0,8.0,65,0.00,,,0.00,,2013-03-02 21:11:00,
2013-03-02 16:22:00,27.0,20.0,29.86,NE,38,2.0,5.0,73,0.00,,,0.00,,2013-03-02 21:22:00,
2013-03-02 16:32:00,28.0,21.0,29.86,North,357,1.0,7.0,74,0.00,,,0.00,,2013-03-02 21:32:00,
2013-03-02 16:42:00,28.0,21.0,29.86,North,357,1.0,7.0,74,0.00,,,0.00,,2013-03-02 21:42:00,
2013-03-02 16:52:00,27.0,20.0,29.87,North,2,2.0,10.0,75,0.00,,,0.00,,2013-03-02 21:52:00,
2013-03-02 17:02:00,27.0,20.0,29.87,North,11,2.0,7.0,73,0.00,,,0.00,,2013-03-02 22:02:00,
2013-03-02 17:11:00,27.0,20.0,29.87,North,11,2.0,7.0,73,0.00,,,0.00,,2013-03-02 22:11:00,
2013-03-02 17:22:00,27.0,20.0,29.87,North,4,2.0,8.0,73,0.00,,,0.00,,2013-03-02 22:22:00,
2013-03-02 17:32:00,27.0,19.0,29.86,North,6,2.0,8.0,72,0.00,,,0.00,,2013-03-02 22:32:00,
2013-03-02 17:42:00,27.0,19.0,29.86,North,6,2.0,8.0,72,0.00,,,0.00,,2013-03-02 22:42:00,
2013-03-02 17:52:00,27.0,20.0,29.87,North,350,3.0,9.0,73,0.00,,,0.00,,2013-03-02 22:52:00,
2013-03-02 18:01:00,26.0,19.0,29.87,NNE,15,2.0,9.0,74,0.00,,,0.00,,2013-03-02 23:01:00,
2013-03-02 18:11:00,26.0,19.0,29.87,North,356,2.0,9.0,75,0.00,,,0.00,,2013-03-02 23:11:00,
2013-03-02 18:21:00,26.0,19.0,29.87,North,356,2.0,9.0,75,0.00,,,0.00,,2013-03-02 23:21:00,
2013-03-02 18:32:00,25.0,18.0,29.87,NNE,17,2.0,8.0,75,0.00,,,0.00,,2013-03-02 23:32:00,
2013-03-02 18:42:00,25.0,18.0,29.87,NNE,17,2.0,8.0,75,0.00,,,0.00,,2013-03-02 23:42:00,
2013-03-02 18:52:00,25.0,19.0,29.87,North,5,2.0,9.0,76,0.00,,,0.00,,2013-03-02 23:52:00,
2013-03-02 19:02:00,25.0,19.0,29.87,NNE,25,2.0,6.0,78,0.00,,,0.00,,2013-03-03 00:02:00,
2013-03-02 19:11:00,25.0,19.0,29.87,NNE,25,2.0,6.0,78,0.00,,,0.00,,2013-03-03 00:11:00,
2013-03-02 19:22:00,24.0,18.0,29.88,North,354,3.0,13.0,79,0.00,,,0.00,,2013-03-03 00:22:00,
2013-03-02 19:32:00,24.0,18.0,29.88,North,11,2.0,8.0,79,0.00,,,0.00,,2013-03-03 00:32:00,
2013-03-02 19:42:00,24.0,18.0,29.88,North,11,2.0,8.0,79,0.00,,,0.00,,2013-03-03 00:42:00,
2013-03-02 19:52:00,24.0,19.0,29.88,North,7,2.0,9.0,80,0.00,,,0.00,,2013-03-03 00:52:00,
2013-03-02 20:01:00,24.0,18.0,29.87,NE,44,2.0,13.0,79,0.00,,,0.00,,2013-03-03 01:01:00,
2013-03-02 20:11:00,24.0,18.0,29.87,NE,44,2.0,13.0,79,0.00,,,0.00,,2013-03-03 01:11:00,
2013-03-02 20:21:00,24.0,18.0,29.87,NE,49,2.0,9.0,79,0.00,,,0.00,,2013-03-03 01:21:00,
2013-03-02 20:32:00,23.0,17.0,29.87,NNE,32,2.0,6.0,79,0.00,,,0.00,,2013-03-03 01:32:00,
2013-03-02 20:42:00,23.0,17.0,29.87,NNE,32,2.0,6.0,79,0.00,,,0.00,,2013-03-03 01:42:00,
2013-03-02 20:52:00,23.0,17.0,29.87,NNE,16,1.0,8.0,79,0.00,,,0.00,,2013-03-03 01:52:00,
2013-03-02 21:01:00,23.0,17.0,29.87,ENE,59,2.0,8.0,79,0.00,,,0.00,,2013-03-03 02:01:00,
2013-03-02 21:11:00,23.0,17.0,29.87,ENE,59,2.0,8.0,79,0.00,,,0.00,,2013-03-03 02:11:00,
2013-03-02 21:21:00,23.0,17.0,29.87,ENE,59,2.0,8.0,79,0.00,,,0.00,,2013-03-03 02:21:00,
2013-03-02 21:32:00,22.0,17.0,29.88,NNE,17,1.0,9.0,80,0.00,,,0.00,,2013-03-03 02:32:00,
2013-03-02 21:42:00,22.0,17.0,29.88,NNE,17,1.0,9.0,80,0.00,,,0.00,,2013-03-03 02:42:00,
2013-03-02 21:52:00,22.0,16.0,29.88,North,1,2.0,6.0,79,0.00,,,0.00,,2013-03-03 02:52:00,
2013-03-02 22:01:00,22.0,16.0,29.88,NE,46,2.0,7.0,79,0.00,,,0.00,,2013-03-03 03:01:00,
2013-03-02 22:11:00,22.0,16.0,29.88,NE,46,2.0,7.0,79,0.00,,,0.00,,2013-03-03 03:11:00,
2013-03-02 22:22:00,22.0,16.0,29.87,NNE,25,2.0,7.0,79,0.00,,,0.00,,2013-03-03 03:22:00,
2013-03-02 22:32:00,21.0,15.0,29.87,NNE,32,2.0,8.0,78,0.00,,,0.00,,2013-03-03 03:32:00,
2013-03-02 22:42:00,21.0,15.0,29.87,NNE,32,2.0,8.0,78,0.00,,,0.00,,2013-03-03 03:42:00,
2013-03-02 22:52:00,21.0,15.0,29.87,NNE,12,2.0,8.0,78,0.00,,,0.00,,2013-03-03 03:52:00,
2013-03-02 23:01:00,21.0,15.0,29.87,NNE,20,1.0,6.0,78,0.00,,,0.00,,2013-03-03 04:01:00,
2013-03-02 23:11:00,21.0,15.0,29.87,NNE,20,1.0,6.0,78,0.00,,,0.00,,2013-03-03 04:11:00,
2013-03-02 23:21:00,21.0,15.0,29.85,NE,42,1.0,8.0,78,0.00,,,0.00,,2013-03-03 04:21:00,
2013-03-02 23:32:00,21.0,15.0,29.85,North,356,1.0,6.0,77,0.00,,,0.00,,2013-03-03 04:32:00,
2013-03-02 23:42:00,21.0,15.0,29.85,North,356,1.0,6.0,77,0.00,,,0.00,,2013-03-03 04:42:00,
2013-03-02 23:52:00,21.0,15.0,29.85,NE,41,1.0,5.0,77,0.00,,,0.00,,2013-03-03 04:52:00,